Akron, CO

11:17 PM MDT on August 23, 2016 (GMT -0600)
Akron-Washington County

Weather History for KAKO - July, 2013

Change the Weather History Date:

Saturday, July 27, 2013

  Actual Average Record
Temperature  
Mean Temperature 63 °F 74 °F  
Max Temperature 72 °F 88 °F 99 °F (1952)
Min Temperature 54 °F 60 °F 50 °F (1988)
Degree Days  
Heating Degree Days 2    
Month to date heating degree days 2  
Cooling Degree Days 0    
Month to date cooling degree days 231  
Growing Degree Days 12 (Base 50)    
Moisture  
Dew Point 54 °F    
Average Humidity 79    
Maximum Humidity 100    
Minimum Humidity 57    
Precipitation  
Precipitation T in 0.09 in 1.94 in (1982)
Month to date precipitation 3.16 2.20  
Year to date precipitation 8.25 10.84  
Sea Level Pressure  
Sea Level Pressure 30.04 in    
Wind  
Wind Speed 10 mph (East)    
Max Wind Speed 21 mph    
Max Gust Speed 29 mph    
Visibility 8 miles    
Events Fog , Rain    
T = Trace of Precipitation, MM = Missing Value Source: NWS Daily Summary

Daily Weather History Graph

Daily Weather History Graph

Search for Another Location

Airport or City:

Trip Planner

Search our weather history database for the weather conditions in past years. The results will help you decide how hot, cold, wet, or windy it might be!

Date:

Astronomy

Jul. 27, 2013 Rise Set
Actual Time 5:46 AM MDT 8:11 PM MDT
Civil Twilight 5:15 AM MDT 8:42 PM MDT
Nautical Twilight 4:37 AM MDT 9:20 PM MDT
Astronomical Twilight 3:54 AM MDT 10:02 PM MDT
Moon 10:59 PM MDT (7/27) 11:29 AM MDT (7/27)
Length of Visible Light 15h 26m
Length of Day
14h 25m
Waning Gibbous, 70% of the Moon is Illuminated
Jul 27
Waning Gibbous
Jul 29
Last Quarter
Aug 6
New
Aug 14
First Quarter
Aug 20
Full

Hourly Weather History & Observations

Time (MDT) Temp. Dew Point Humidity Pressure Visibility Wind Dir Wind Speed Gust Speed Precip Events Conditions
12:53 AM 60.1 °F 50.0 °F 69% 30.04 in 10.0 mi SE 10.4 mph - N/A   Clear
1:53 AM 57.0 °F 52.0 °F 83% 30.02 in 10.0 mi Calm Calm - N/A   Clear
2:53 AM 57.9 °F 51.1 °F 78% 29.99 in 10.0 mi Calm Calm - N/A   Clear
3:53 AM 55.9 °F 51.1 °F 84% 29.99 in 10.0 mi North 5.8 mph - N/A   Clear
4:53 AM 54.0 °F 51.1 °F 90% 29.98 in 10.0 mi Calm Calm - N/A   Clear
5:53 AM 55.0 °F 53.1 °F 93% 29.99 in 10.0 mi NE 9.2 mph - N/A   Clear
6:15 AM 55.4 °F 53.6 °F 94% 30.13 in 2.0 mi ENE 11.5 mph - N/A   Scattered Clouds
6:17 AM 55.4 °F 53.6 °F 94% 30.13 in 0.8 mi ENE 12.7 mph - N/A   Mist
6:53 AM 54.0 °F 54.0 °F 100% 29.98 in 0.2 mi East 11.5 mph - N/A Fog Fog
7:53 AM 55.0 °F 55.0 °F 100% 30.01 in 0.2 mi East 9.2 mph - N/A Fog Fog
8:53 AM 55.9 °F 55.9 °F 100% 30.02 in 0.2 mi East 9.2 mph - N/A Fog Fog
9:36 AM 57.2 °F 55.4 °F 94% 30.12 in 1.2 mi East 12.7 mph - N/A   Overcast
9:39 AM 57.2 °F 55.4 °F 94% 30.12 in 2.0 mi ESE 10.4 mph - N/A   Overcast
9:53 AM 57.0 °F 55.9 °F 96% 30.02 in 6.0 mi East 11.5 mph - N/A   Overcast
10:40 AM 59.0 °F 55.4 °F 88% 30.14 in 10.0 mi East 13.8 mph - N/A   Overcast
10:53 AM 62.1 °F 55.9 °F 80% 30.01 in 10.0 mi East 15.0 mph 21.9 mph N/A   Overcast
11:02 AM 62.6 °F 55.4 °F 77% 30.13 in 10.0 mi East 16.1 mph 23.0 mph N/A   Overcast
11:53 AM 64.0 °F 55.9 °F 75% 30.01 in 10.0 mi East 16.1 mph - N/A   Overcast
12:32 PM 66.2 °F 55.4 °F 68% 30.14 in 10.0 mi East 12.7 mph 20.7 mph N/A   Mostly Cloudy
12:53 PM 66.9 °F 55.9 °F 68% 30.01 in 10.0 mi East 16.1 mph 24.2 mph N/A   Mostly Cloudy
1:01 PM 66.2 °F 55.4 °F 68% 30.14 in 10.0 mi East 13.8 mph - N/A   Scattered Clouds
1:53 PM 68.0 °F 55.9 °F 65% 30.00 in 10.0 mi East 13.8 mph 25.3 mph N/A   Scattered Clouds
2:03 PM 69.8 °F 55.4 °F 60% 30.12 in 10.0 mi East 16.1 mph 23.0 mph N/A   Mostly Cloudy
2:17 PM 69.8 °F 55.4 °F 60% 30.12 in 10.0 mi East 15.0 mph 24.2 mph N/A   Scattered Clouds
2:53 PM 69.1 °F 55.9 °F 63% 29.97 in 10.0 mi East 16.1 mph 26.5 mph N/A   Clear
3:53 PM 70.0 °F 55.0 °F 59% 29.96 in 10.0 mi East 16.1 mph 21.9 mph N/A   Clear
4:53 PM 71.1 °F 55.0 °F 57% 29.96 in 10.0 mi East 11.5 mph 21.9 mph N/A   Clear
5:53 PM 68.0 °F 55.0 °F 63% 29.95 in 10.0 mi East 10.4 mph - N/A   Clear
6:53 PM 66.0 °F 54.0 °F 65% 29.99 in 10.0 mi East 11.5 mph - N/A   Clear
7:53 PM 63.0 °F 54.0 °F 72% 30.03 in 10.0 mi ENE 12.7 mph - N/A   Partly Cloudy
8:53 PM 60.1 °F 55.0 °F 83% 30.01 in 10.0 mi ESE 16.1 mph - 0.00 in Rain Light Rain
9:53 PM 59.0 °F 53.1 °F 81% 30.03 in 10.0 mi ENE 10.4 mph - 0.00 in   Mostly Cloudy
10:53 PM 59.0 °F 54.0 °F 83% 30.04 in 10.0 mi ESE 4.6 mph - N/A   Overcast
11:53 PM 59.0 °F 54.0 °F 83% 30.01 in 10.0 mi SE 8.1 mph - 0.00 in   Scattered Clouds